Weather in Shidlovka

Russia / Belgorod Oblast     50°31′27″N   37°37′49″E
temp.,
°C
wind,
m/s
gust,
m/s
humid.,
%
clouds,
%
prec.,
mm/h
press.,
hPa
HPBL,
m
25 february, thu
thu2500:00−9ssw5991100 0.4 1035425
03:00−9ssw41090100 0.6 1033356
06:00−8sw5994100 0.1 1031335
09:00−6sw61093100 0.2 1030335
12:00−2wsw61192100 0.1 1028423
15:00−1sw71195100 0.1 1025313
18:00+1wsw71497100 0.1 1022434
21:00+2w61398100 0.4 1022294
26 february, fri
fri2600:00+2wnw51198100 0.2 1022284
03:00+2wnw51098100 0.3 1021247
06:00+3wnw51099100 0.1 1021203
09:00+3w5999100 0.1 1020196
12:00+3w71398100 0.0 1019417
15:00+3w81497100 0.0 1017510
18:00+3w71397100 0.1 1016411
21:00+3w61198100 0.2 1015343
27 february, sat
sat2700:00+2w51195100 0.0 1013356
03:00+1w4996100 0.1 1013356
06:00+1w51096100 0.0 1011392
09:00+1w51096100 0.1 1011413
12:00+3w61088100 0.1 1010594
15:00+1wnw61095100 0.2 1010572
18:00+1wnw5109799 0.1 1010519
21:00+1wnw5109699 0.3 1011429
28 february, sun
sun2800:00+1nw4997100 0.2 1012529
03:000nnw599499 0.3 1014487
06:00−2nnw598289 0.1 1015711
09:00−3nnw587689 0.1 1017651
12:00−2nnw586847 0.0 1018672
15:00−1nnw577145 0.0 1019773
18:00−2nnw587999 0.0 1020761
21:00−1n487899 0.1 1022953
1 march, mon
mon100:00−2n468091 0.0 1022618
03:00−3n347194 0.0 1023790
06:00−3n3571100 0.0 1024825
09:00−3n4568100 0.0 1026894
12:00−2n4568100 0.0 1027889
15:00−2n3464100 0.0 1028880
18:00−2nnw3468100 0.0 1028875
21:00−3nnw2472100 0.0 1030593